Fort Lauderdale, FL

6:51 PM EDT on March 25, 2017 (GMT -0400)
Fort Lauderdale Executive

Weather History for KFXE - February, 2014

Change the Weather History Date:

Sunday, February 16, 2014

  Actual Average Record
Temperature  
Mean Temperature 62 °F -  
Max Temperature 75 °F 79 °F 88 °F (1952)
Min Temperature 48 °F 59 °F 38 °F (1991)
Degree Days  
Heating Degree Days 4    
Growing Degree Days 12 (Base 50)    
Moisture  
Dew Point 49 °F    
Average Humidity 63    
Maximum Humidity 83    
Minimum Humidity 35    
Precipitation  
Precipitation 0.00 in - - ()
Sea Level Pressure  
Sea Level Pressure 30.15 in    
Wind  
Wind Speed 4 mph (NNW)    
Max Wind Speed 8 mph    
Max Gust Speed -    
Visibility 10 miles    
Events      
Averages and records for this station are not official NWS values.
T = Trace of Precipitation, MM = Missing Value Source: NWS Daily Summary

Daily Weather History Graph

Daily Weather History Graph

Search for Another Location

Airport or City:

Trip Planner

Search our weather history database for the weather conditions in past years. The results will help you decide how hot, cold, wet, or windy it might be!

Date:

Astronomy

Feb. 16, 2014 Rise Set
Actual Time 6:55 AM EST 6:14 PM EST
Civil Twilight 6:31 AM EST 6:37 PM EST
Nautical Twilight 6:04 AM EST 7:04 PM EST
Astronomical Twilight 5:37 AM EST 7:31 PM EST
Moon 7:53 PM EST (2/16) 7:37 AM EST (2/16)
Length of Visible Light 12h 05m
Length of Day
11h 18m
Full, 97% of the Moon is Illuminated
Feb 16
Full
Feb 22
Last Quarter
Mar 1
New
Mar 8
First Quarter
Mar 16
Full

Hourly Weather History & Observations

Time (EST) Temp. Dew Point Humidity Pressure Visibility Wind Dir Wind Speed Gust Speed Precip Events Conditions
12:53 AM 57.0 °F 48.9 °F 74% 30.12 in 10.0 mi WNW 3.5 mph - N/A   Clear
1:53 AM 53.1 °F 46.9 °F 80% 30.12 in 10.0 mi West 3.5 mph - N/A   Clear
2:53 AM 51.1 °F 45.0 °F 80% 30.12 in 10.0 mi West 3.5 mph - N/A   Clear
3:53 AM 52.0 °F 46.0 °F 80% 30.11 in 10.0 mi WNW 4.6 mph - N/A   Clear
4:53 AM 50.0 °F 45.0 °F 83% 30.12 in 10.0 mi WNW 4.6 mph - N/A   Clear
5:53 AM 50.0 °F 45.0 °F 83% 30.12 in 10.0 mi Calm Calm - N/A   Clear
6:53 AM 48.9 °F 44.1 °F 83% 30.14 in 10.0 mi Calm Calm - N/A   Clear
7:53 AM 51.1 °F 46.0 °F 83% 30.16 in 10.0 mi NW 6.9 mph - N/A   Clear
8:53 AM 57.9 °F 48.0 °F 70% 30.19 in 10.0 mi NW 8.1 mph - N/A   Partly Cloudy
9:53 AM 64.0 °F 50.0 °F 60% 30.20 in 10.0 mi NNW 5.8 mph - N/A   Clear
10:53 AM 70.0 °F 51.1 °F 51% 30.19 in 10.0 mi NNW 3.5 mph - N/A   Scattered Clouds
11:53 AM 73.0 °F 51.1 °F 46% 30.17 in 10.0 mi Variable 3.5 mph - N/A   Clear
12:53 PM 75.9 °F 46.0 °F 35% 30.15 in 10.0 mi ESE 5.8 mph - N/A   Partly Cloudy
1:53 PM 75.0 °F 48.0 °F 38% 30.13 in 10.0 mi Calm Calm - N/A   Clear
2:53 PM 75.9 °F 46.9 °F 36% 30.11 in 10.0 mi ENE 6.9 mph - N/A   Clear
3:53 PM 75.0 °F 48.9 °F 40% 30.11 in 10.0 mi East 8.1 mph - N/A   Clear
4:53 PM 73.9 °F 48.0 °F 40% 30.12 in 10.0 mi East 8.1 mph - N/A   Clear
5:53 PM 72.0 °F 50.0 °F 46% 30.14 in 10.0 mi NE 5.8 mph - N/A   Clear
6:53 PM 69.1 °F 52.0 °F 54% 30.15 in 10.0 mi ENE 4.6 mph - N/A   Clear
7:53 PM 68.0 °F 53.1 °F 59% 30.16 in 10.0 mi Calm Calm - N/A   Clear
8:53 PM 64.0 °F 55.0 °F 73% 30.18 in 10.0 mi Calm Calm - N/A   Clear
9:53 PM 64.9 °F 55.0 °F 70% 30.19 in 10.0 mi NNW 4.6 mph - N/A   Clear
10:53 PM 63.0 °F 55.0 °F 75% 30.19 in 10.0 mi Calm Calm - N/A   Clear
11:53 PM 61.0 °F 54.0 °F 78% 30.18 in 10.0 mi Calm Calm - N/A   Clear